{"data":{"norad_id":56776,"epoch":"2026-09-20T22:00:03.000096Z","epoch_age_seconds":78886,"freshness":"FRESH","line1":"1 56776U 23078K   26263.91670139  .00000147  00000+0  16201-4 0  9991","line2":"2 56776  70.0011 192.2651 0001121 304.0300 126.6055 15.07881200  5713","mean_motion":15.078812,"eccentricity":0.0001121,"inclination_deg":70.0011,"raan_deg":192.2651,"arg_perigee_deg":304.03,"mean_anomaly_deg":126.6055,"bstar":1.6201e-5,"rev_number":571,"period_min":95.498239516482,"perigee_km":541.89978669701,"apogee_km":543.45143288413,"semimajor_km":6920.8126097906,"source":"CELESTRAK","updated_at":"2026-09-21T09:00:33.486850Z"}}